FICHTELBE Weather Reports


Display with metric or nautical units.
time (UTC)temp
F
wind
direction
speed
MPH
gust
MPH
rain 1hr
in
rain 24hr
in
rain mn
in
humidity
%
barometer
mb
20260901051738 46 270 22.0 0.0 0.00 0.00 0.00 99
20260901041938 46 270 24.0 32.0 0.00 0.00 0.00 99
20260901031638 46 270 20.0 26.0 0.00 0.00 0.00 99
20260901021838 48 270 26.0 36.0 0.00 0.00 0.00 93
20260901011839 48 280 26.0 33.0 0.00 0.00 0.00 93
20260901001639 48 280 30.0 40.0 0.00 0.00 0.00 99
20260831231739 48 280 33.0 46.0 0.00 0.00 0.00 93
20260831221939 48 270 29.0 41.0 0.00 0.00 0.00 93
20260831211638 50 270 28.0 39.0 0.00 0.00 0.00 93
20260831201839 52 280 24.0 33.0 0.00 0.00 0.00 87
20260831191839 52 260 25.0 0.0 0.00 0.00 0.00 87
20260831181639 54 260 23.0 31.0 0.00 0.00 0.00 81
20260831171839 57 260 23.0 33.0 0.00 0.00 0.00 76
20260831161939 57 260 20.0 28.0 0.00 0.00 0.00 76
20260831151640 59 250 22.0 30.0 0.00 0.00 0.00 67
20260831141738 61 260 21.0 29.0 0.00 0.00 0.00 67
20260831131738 59 270 25.0 35.0 0.00 0.00 0.00 72
20260831121639 59 270 25.0 41.0 0.00 0.00 0.00 77
20260831111738 57 270 32.0 43.0 0.00 0.00 0.00 82
20260831101938 55 270 29.0 37.0 0.00 0.00 0.00 99
20260831091639 54 260 30.0 40.0 0.00 0.00 0.00 99
20260831081739 54 260 28.0 36.0 0.00 0.00 0.00 99
20260831071740 52 220 28.0 35.0 0.00 0.00 0.00 99
20260831061654 52 190 22.0 0.0 0.00 0.00 0.00 93